Terminal Aerodrome Forecast
Issued by NWS Sterling, VA

Home | Current Version | Previous Version | Text Only | Print | Product List | Glossary On
Versions: 1 2 3 4 5 6 7 8 9 10 11 12 13 14 15 16 17 18 19 20 21 22 23
887
FTUS41 KLWX 290301 AAA
TAFDCA
TAF AMD
KDCA 290301Z 2903/2924 05007KT P6SM OVC007
     FM291400 26005KT P6SM BKN008
     FM291600 28007KT P6SM BKN035
     FM292300 29005KT P6SM SCT250=

USA.gov is the U.S. government's official web portal to all federal, state and local government web resources and services.